Time,TemperatureF,DewpointF,PressureIn,WindDirection,WindDirectionDegrees,WindSpeedMPH,WindSpeedGustMPH,Humidity,HourlyPrecipIn,Conditions,Clouds,dailyrainin,SoftwareType,DateUTC
2013-01-26 00:00:00,17.6,0.3,29.97,NNE,21,8.0,15.0,46,0.00,,,0.00,Weather View 32 v70,2013-01-26 05:00:00,
2013-01-26 00:01:00,17.6,0.5,29.97,NNE,22,8.0,15.0,46,0.00,,,0.00,Weather View 32 v70,2013-01-26 05:01:00,
2013-01-26 00:06:00,17.6,0.5,29.97,NNE,31,8.0,15.0,47,0.00,,,0.00,Weather View 32 v70,2013-01-26 05:06:00,
2013-01-26 00:11:00,17.4,0.6,30.00,NE,43,7.0,15.0,47,0.00,,,0.00,Weather View 32 v70,2013-01-26 05:11:00,
2013-01-26 00:16:00,17.4,0.2,29.97,NE,38,8.0,15.0,46,0.00,,,0.00,Weather View 32 v70,2013-01-26 05:16:00,
2013-01-26 00:21:00,17.8,0.6,29.97,NE,44,6.0,15.0,46,0.00,,,0.00,Weather View 32 v70,2013-01-26 05:21:00,
2013-01-26 00:26:00,17.6,0.5,29.97,NNE,32,7.0,15.0,46,0.00,,,0.00,Weather View 32 v70,2013-01-26 05:26:00,
2013-01-26 00:31:00,17.6,0.5,29.97,NNE,33,6.0,15.0,46,0.00,,,0.00,Weather View 32 v70,2013-01-26 05:31:00,
2013-01-26 00:36:00,17.4,0.3,29.97,NNE,24,6.0,13.0,46,0.00,,,0.00,Weather View 32 v70,2013-01-26 05:36:00,
2013-01-26 00:41:00,17.4,0.3,29.97,NE,40,7.0,13.0,46,0.00,,,0.00,Weather View 32 v70,2013-01-26 05:41:00,
2013-01-26 00:46:00,17.6,-0.1,29.97,NE,54,5.0,13.0,45,0.00,,,0.00,Weather View 32 v70,2013-01-26 05:46:00,
2013-01-26 00:51:00,17.8,0.0,29.97,NE,44,7.0,13.0,45,0.00,,,0.00,Weather View 32 v70,2013-01-26 05:51:00,
2013-01-26 00:56:00,17.8,-0.1,29.97,NE,45,6.0,11.0,45,0.00,,,0.00,Weather View 32 v70,2013-01-26 05:56:00,
2013-01-26 01:01:00,17.6,-0.4,29.97,NE,44,6.0,11.0,44,0.00,,,0.00,Weather View 32 v70,2013-01-26 06:01:00,
2013-01-26 01:06:00,17.6,-0.6,29.94,NE,47,6.0,11.0,44,0.00,,,0.00,Weather View 32 v70,2013-01-26 06:06:00,
2013-01-26 01:11:00,17.4,-0.7,29.97,NE,37,7.0,8.0,44,0.00,,,0.00,Weather View 32 v70,2013-01-26 06:11:00,
2013-01-26 01:16:00,17.2,-0.6,30.00,NE,40,8.0,8.0,45,0.00,,,0.00,Weather View 32 v70,2013-01-26 06:16:00,
2013-01-26 01:21:00,16.7,-1.0,30.00,NE,36,7.0,9.0,45,0.00,,,0.00,Weather View 32 v70,2013-01-26 06:21:00,
2013-01-26 01:26:00,16.5,-0.7,29.97,NNE,28,6.0,9.0,46,0.00,,,0.00,Weather View 32 v70,2013-01-26 06:26:00,
2013-01-26 01:31:00,16.1,-0.9,29.97,NE,36,7.0,9.0,46,0.00,,,0.00,Weather View 32 v70,2013-01-26 06:31:00,
2013-01-26 01:36:00,16.1,-1.1,29.94,NE,50,6.0,9.0,46,0.00,,,0.00,Weather View 32 v70,2013-01-26 06:36:00,
2013-01-26 01:41:00,16.5,-1.0,29.94,NE,44,7.0,9.0,45,0.00,,,0.00,Weather View 32 v70,2013-01-26 06:41:00,
2013-01-26 01:46:00,16.1,-1.1,29.94,NE,39,8.0,9.0,46,0.00,,,0.00,Weather View 32 v70,2013-01-26 06:46:00,
2013-01-26 01:51:00,16.0,-1.1,29.94,NE,46,6.0,9.0,46,0.00,,,0.00,Weather View 32 v70,2013-01-26 06:51:00,
2013-01-26 01:56:00,16.1,-1.1,29.94,NNE,31,6.0,9.0,46,0.00,,,0.00,Weather View 32 v70,2013-01-26 06:56:00,
2013-01-26 02:01:00,16.0,-1.2,29.97,NNE,32,6.0,9.0,46,0.00,,,0.00,Weather View 32 v70,2013-01-26 07:01:00,
2013-01-26 02:06:00,15.8,-1.1,29.94,NNE,29,5.0,9.0,47,0.00,,,0.00,Weather View 32 v70,2013-01-26 07:06:00,
2013-01-26 02:11:00,16.1,-0.5,29.94,NE,39,6.0,9.0,47,0.00,,,0.00,Weather View 32 v70,2013-01-26 07:11:00,
2013-01-26 02:16:00,15.1,-2.3,29.94,ENE,57,3.0,9.0,45,0.00,,,0.00,Weather View 32 v70,2013-01-26 07:16:00,
2013-01-26 02:21:00,15.1,-2.1,29.94,NE,51,4.0,8.0,46,0.00,,,0.00,Weather View 32 v70,2013-01-26 07:21:00,
2013-01-26 02:26:00,15.8,-1.1,29.91,NE,38,6.0,8.0,47,0.00,,,0.00,Weather View 32 v70,2013-01-26 07:26:00,
2013-01-26 02:31:00,14.9,-2.5,29.94,NNE,16,6.0,8.0,45,0.00,,,0.00,Weather View 32 v70,2013-01-26 07:31:00,
2013-01-26 02:36:00,14.5,-2.7,29.94,NNE,33,8.0,8.0,46,0.00,,,0.00,Weather View 32 v70,2013-01-26 07:36:00,
2013-01-26 02:41:00,14.2,-2.7,29.94,NE,36,9.0,9.0,46,0.00,,,0.00,Weather View 32 v70,2013-01-26 07:41:00,
2013-01-26 02:46:00,13.6,-3.2,29.94,NE,42,10.0,11.0,46,0.00,,,0.00,Weather View 32 v70,2013-01-26 07:46:00,
2013-01-26 02:51:00,14.2,-2.5,29.94,NE,43,8.0,11.0,47,0.00,,,0.00,Weather View 32 v70,2013-01-26 07:51:00,
2013-01-26 02:56:00,13.8,-2.9,29.94,NE,50,11.0,11.0,47,0.00,,,0.00,Weather View 32 v70,2013-01-26 07:56:00,
2013-01-26 03:01:00,13.4,-3.1,29.97,NE,50,12.0,12.0,47,0.00,,,0.00,Weather View 32 v70,2013-01-26 08:01:00,
2013-01-26 03:06:00,13.6,-2.7,29.97,NE,52,10.0,12.0,47,0.00,,,0.00,Weather View 32 v70,2013-01-26 08:06:00,
2013-01-26 03:11:00,12.9,-3.8,29.94,NE,44,10.0,12.0,46,0.00,,,0.00,Weather View 32 v70,2013-01-26 08:11:00,
2013-01-26 03:16:00,12.4,-4.0,29.94,NE,46,12.0,13.0,47,0.00,,,0.00,Weather View 32 v70,2013-01-26 08:16:00,
2013-01-26 03:21:00,12.4,-3.9,29.94,NE,52,12.0,13.0,47,0.00,,,0.00,Weather View 32 v70,2013-01-26 08:21:00,
2013-01-26 03:26:00,12.7,-3.6,30.00,NE,43,4.0,13.0,47,0.00,,,0.00,Weather View 32 v70,2013-01-26 08:26:00,
2013-01-26 03:31:00,12.9,-3.5,29.97,NE,42,4.0,13.0,47,0.00,,,0.00,Weather View 32 v70,2013-01-26 08:31:00,
2013-01-26 03:36:00,12.7,-4.0,29.94,NE,47,4.0,13.0,46,0.00,,,0.00,Weather View 32 v70,2013-01-26 08:36:00,
2013-01-26 03:41:00,12.7,-3.9,29.94,NE,36,2.0,13.0,47,0.00,,,0.00,Weather View 32 v70,2013-01-26 08:41:00,
2013-01-26 03:46:00,12.4,-4.4,29.94,NNE,21,2.0,13.0,46,0.00,,,0.00,Weather View 32 v70,2013-01-26 08:46:00,
2013-01-26 03:51:00,12.7,-4.1,29.94,NE,35,4.0,13.0,46,0.00,,,0.00,Weather View 32 v70,2013-01-26 08:51:00,
2013-01-26 03:56:00,12.9,-3.7,29.94,NNE,27,2.0,13.0,47,0.00,,,0.00,Weather View 32 v70,2013-01-26 08:56:00,
2013-01-26 04:01:00,11.1,-5.9,29.91,SE,125,0.0,13.0,46,0.00,,,0.00,Weather View 32 v70,2013-01-26 09:01:00,
2013-01-26 04:06:00,10.9,-5.1,29.94,NNE,12,0.0,13.0,48,0.00,,,0.00,Weather View 32 v70,2013-01-26 09:06:00,
2013-01-26 04:11:00,11.6,-3.5,29.94,NNE,15,2.0,13.0,50,0.00,,,0.00,Weather View 32 v70,2013-01-26 09:11:00,
2013-01-26 04:16:00,11.8,-3.9,29.94,NNW,342,2.0,13.0,49,0.00,,,0.00,Weather View 32 v70,2013-01-26 09:16:00,
2013-01-26 04:21:00,11.8,-4.3,29.94,NNE,16,2.0,13.0,48,0.00,,,0.00,Weather View 32 v70,2013-01-26 09:21:00,
2013-01-26 04:26:00,11.5,-5.2,29.97,NNW,346,2.0,5.0,46,0.00,,,0.00,Weather View 32 v70,2013-01-26 09:26:00,
2013-01-26 04:31:00,10.0,-6.5,29.94,NNW,331,2.0,4.0,46,0.00,,,0.00,Weather View 32 v70,2013-01-26 09:31:00,
2013-01-26 04:36:00,10.0,-6.1,29.97,NW,318,3.0,5.0,47,0.00,,,0.00,Weather View 32 v70,2013-01-26 09:36:00,
2013-01-26 04:41:00,10.6,-5.4,29.94,North,8,2.0,5.0,48,0.00,,,0.00,Weather View 32 v70,2013-01-26 09:41:00,
2013-01-26 04:46:00,10.9,-5.1,29.97,NNW,347,1.0,5.0,48,0.00,,,0.00,Weather View 32 v70,2013-01-26 09:46:00,
2013-01-26 04:51:00,11.1,-4.9,29.97,NNW,348,1.0,5.0,48,0.00,,,0.00,Weather View 32 v70,2013-01-26 09:51:00,
2013-01-26 04:56:00,11.5,-4.8,30.00,ESE,117,0.0,5.0,47,0.00,,,0.00,Weather View 32 v70,2013-01-26 09:56:00,
2013-01-26 05:01:00,11.1,-5.4,29.97,NW,322,0.0,5.0,47,0.00,,,0.00,Weather View 32 v70,2013-01-26 10:01:00,
2013-01-26 05:06:00,11.8,-4.7,29.97,NE,49,2.0,5.0,47,0.00,,,0.00,Weather View 32 v70,2013-01-26 10:06:00,
2013-01-26 05:11:00,11.6,-5.2,29.94,NNE,33,1.0,5.0,46,0.00,,,0.00,Weather View 32 v70,2013-01-26 10:11:00,
2013-01-26 05:16:00,12.4,-4.4,29.97,NNE,26,0.0,5.0,46,0.00,,,0.00,Weather View 32 v70,2013-01-26 10:16:00,
2013-01-26 05:21:00,12.2,-4.2,29.97,SSE,163,0.0,5.0,47,0.00,,,0.00,Weather View 32 v70,2013-01-26 10:21:00,
2013-01-26 05:26:00,11.8,-5.0,29.97,North,353,0.0,5.0,46,0.00,,,0.00,Weather View 32 v70,2013-01-26 10:26:00,
2013-01-26 05:31:00,12.4,-4.6,29.97,ENE,66,1.0,5.0,46,0.00,,,0.00,Weather View 32 v70,2013-01-26 10:31:00,
2013-01-26 05:36:00,12.4,-4.6,29.94,East,85,1.0,3.0,46,0.00,,,0.00,Weather View 32 v70,2013-01-26 10:36:00,
2013-01-26 05:41:00,12.2,-5.1,29.97,ENE,69,1.0,2.0,45,0.00,,,0.00,Weather View 32 v70,2013-01-26 10:41:00,
2013-01-26 05:46:00,12.2,-4.9,29.97,NE,51,1.0,2.0,45,0.00,,,0.00,Weather View 32 v70,2013-01-26 10:46:00,
2013-01-26 05:51:00,12.4,-4.5,29.97,ENE,76,1.0,2.0,46,0.00,,,0.00,Weather View 32 v70,2013-01-26 10:51:00,
2013-01-26 05:56:00,11.8,-5.1,29.97,NE,38,2.0,2.0,46,0.00,,,0.00,Weather View 32 v70,2013-01-26 10:56:00,
2013-01-26 06:01:00,12.2,-5.1,29.97,NE,38,2.0,2.0,45,0.00,,,0.00,Weather View 32 v70,2013-01-26 11:01:00,
2013-01-26 06:06:00,11.8,-5.5,29.97,NE,48,1.0,2.0,45,0.00,,,0.00,Weather View 32 v70,2013-01-26 11:06:00,
2013-01-26 06:11:00,11.8,-5.7,29.97,NE,34,3.0,3.0,44,0.00,,,0.00,Weather View 32 v70,2013-01-26 11:11:00,
2013-01-26 06:16:00,11.8,-5.7,29.97,NE,43,1.0,3.0,45,0.00,,,0.00,Weather View 32 v70,2013-01-26 11:16:00,
2013-01-26 06:21:00,11.6,-5.7,29.97,SSE,151,0.0,3.0,45,0.00,,,0.00,Weather View 32 v70,2013-01-26 11:21:00,
2013-01-26 06:26:00,12.2,-5.1,29.97,NNW,343,1.0,3.0,45,0.00,,,0.00,Weather View 32 v70,2013-01-26 11:26:00,
2013-01-26 06:31:00,12.2,-5.4,29.97,NE,40,1.0,3.0,44,0.00,,,0.00,Weather View 32 v70,2013-01-26 11:31:00,
2013-01-26 06:36:00,11.8,-5.8,29.97,North,357,1.0,3.0,44,0.00,,,0.00,Weather View 32 v70,2013-01-26 11:36:00,
2013-01-26 06:41:00,11.6,-5.9,29.97,ESE,102,1.0,3.0,44,0.00,,,0.00,Weather View 32 v70,2013-01-26 11:41:00,
2013-01-26 06:46:00,11.8,-5.5,29.97,North,10,1.0,3.0,45,0.00,,,0.00,Weather View 32 v70,2013-01-26 11:46:00,
2013-01-26 06:51:00,11.6,-5.8,29.97,ENE,64,1.0,3.0,45,0.00,,,0.00,Weather View 32 v70,2013-01-26 11:51:00,
2013-01-26 06:56:00,11.5,-6.2,30.03,NE,42,2.0,3.0,44,0.00,,,0.00,Weather View 32 v70,2013-01-26 11:56:00,
2013-01-26 07:01:00,11.6,-6.0,30.00,ENE,59,1.0,3.0,44,0.00,,,0.00,Weather View 32 v70,2013-01-26 12:01:00,
2013-01-26 07:06:00,11.6,-5.8,30.00,NNW,347,1.0,3.0,45,0.00,,,0.00,Weather View 32 v70,2013-01-26 12:06:00,
2013-01-26 07:11:00,11.6,-5.7,30.00,North,6,3.0,3.0,45,0.00,,,0.00,Weather View 32 v70,2013-01-26 12:11:00,
2013-01-26 07:16:00,11.5,-6.0,30.00,North,352,2.0,3.0,45,0.00,,,0.00,Weather View 32 v70,2013-01-26 12:16:00,
2013-01-26 07:21:00,11.6,-5.6,30.00,NW,326,1.0,3.0,45,0.00,,,0.00,Weather View 32 v70,2013-01-26 12:21:00,
2013-01-26 07:26:00,12.2,-5.1,30.00,NNE,18,1.0,3.0,45,0.00,,,0.00,Weather View 32 v70,2013-01-26 12:26:00,
2013-01-26 07:31:00,12.2,-5.8,30.00,NNE,18,1.0,3.0,44,0.00,,,0.00,Weather View 32 v70,2013-01-26 12:31:00,
2013-01-26 07:36:00,12.7,-5.0,30.00,NNE,25,2.0,3.0,44,0.00,,,0.00,Weather View 32 v70,2013-01-26 12:36:00,
2013-01-26 07:41:00,14.2,-3.8,30.00,ENE,62,2.0,3.0,44,0.00,,,0.00,Weather View 32 v70,2013-01-26 12:41:00,
2013-01-26 07:46:00,13.1,-6.2,30.00,NNE,19,4.0,4.0,41,0.00,,,0.00,Weather View 32 v70,2013-01-26 12:46:00,
2013-01-26 07:52:00,13.6,-5.9,30.00,NNW,337,4.0,6.0,41,0.00,,,0.00,Weather View 32 v70,2013-01-26 12:52:00,
2013-01-26 07:56:00,13.8,-5.9,30.00,NNE,27,5.0,6.0,40,0.00,,,0.00,Weather View 32 v70,2013-01-26 12:56:00,
2013-01-26 08:01:00,14.5,-5.3,30.00,North,7,4.0,7.0,40,0.00,,,0.00,Weather View 32 v70,2013-01-26 13:01:00,
2013-01-26 08:06:00,16.1,-4.4,30.00,NE,46,5.0,7.0,39,0.00,,,0.00,Weather View 32 v70,2013-01-26 13:06:00,
2013-01-26 08:11:00,15.6,-5.0,30.00,NE,35,4.0,7.0,39,0.00,,,0.00,Weather View 32 v70,2013-01-26 13:11:00,
2013-01-26 08:16:00,16.0,-5.9,30.00,NNE,27,7.0,8.0,37,0.00,,,0.00,Weather View 32 v70,2013-01-26 13:16:00,
2013-01-26 08:21:00,15.1,-6.7,30.00,NNE,17,9.0,9.0,37,0.00,,,0.00,Weather View 32 v70,2013-01-26 13:21:00,
2013-01-26 08:26:00,15.6,-6.4,30.00,North,359,4.0,9.0,36,0.00,,,0.00,Weather View 32 v70,2013-01-26 13:26:00,
2013-01-26 08:31:00,16.0,-6.3,30.00,NNE,20,5.0,9.0,36,0.00,,,0.00,Weather View 32 v70,2013-01-26 13:31:00,
2013-01-26 08:36:00,16.0,-7.0,30.03,North,6,7.0,9.0,35,0.00,,,0.00,Weather View 32 v70,2013-01-26 13:36:00,
2013-01-26 08:41:00,17.2,-7.5,30.00,West,264,11.0,11.0,32,0.00,,,0.00,Weather View 32 v70,2013-01-26 13:41:00,
2013-01-26 08:46:00,16.9,-6.7,30.03,ENE,62,2.0,11.0,34,0.00,,,0.00,Weather View 32 v70,2013-01-26 13:46:00,
2013-01-26 08:51:00,16.7,-7.6,30.00,NNE,21,5.0,11.0,33,0.00,,,0.00,Weather View 32 v70,2013-01-26 13:51:00,
2013-01-26 08:56:00,16.5,-8.4,30.00,NNE,20,3.0,11.0,32,0.00,,,0.00,Weather View 32 v70,2013-01-26 13:56:00,
2013-01-26 09:01:00,15.6,-9.5,30.00,North,11,7.0,11.0,31,0.00,,,0.00,Weather View 32 v70,2013-01-26 14:01:00,
2013-01-26 09:07:00,18.1,-6.0,30.00,NNE,30,2.0,11.0,33,0.00,,,0.00,Weather View 32 v70,2013-01-26 14:07:00,
2013-01-26 09:12:00,15.6,-9.0,30.00,NNW,332,7.0,11.0,32,0.00,,,0.00,Weather View 32 v70,2013-01-26 14:12:00,
2013-01-26 09:17:00,16.5,-7.3,30.03,NNE,17,4.0,11.0,33,0.00,,,0.00,Weather View 32 v70,2013-01-26 14:17:00,
2013-01-26 09:22:00,18.1,-6.9,30.00,NE,40,6.0,11.0,32,0.00,,,0.00,Weather View 32 v70,2013-01-26 14:22:00,
2013-01-26 09:27:00,19.6,-6.1,30.00,ENE,67,3.0,11.0,31,0.00,,,0.00,Weather View 32 v70,2013-01-26 14:27:00,
2013-01-26 09:32:00,17.4,-8.9,30.00,NNE,31,5.0,11.0,30,0.00,,,0.00,Weather View 32 v70,2013-01-26 14:32:00,
2013-01-26 09:37:00,19.4,-7.5,30.00,ENE,73,3.0,11.0,29,0.00,,,0.00,Weather View 32 v70,2013-01-26 14:37:00,
2013-01-26 09:42:00,22.3,-3.7,30.03,East,100,4.0,11.0,31,0.00,,,0.00,Weather View 32 v70,2013-01-26 14:42:00,
2013-01-26 09:47:00,18.3,-10.1,30.03,North,3,3.0,9.0,27,0.00,,,0.00,Weather View 32 v70,2013-01-26 14:47:00,
2013-01-26 09:52:00,21.4,-7.9,30.00,ENE,72,2.0,9.0,26,0.00,,,0.00,Weather View 32 v70,2013-01-26 14:52:00,
2013-01-26 09:57:00,21.5,-5.9,30.00,East,83,4.0,9.0,29,0.00,,,0.00,Weather View 32 v70,2013-01-26 14:57:00,
2013-01-26 10:02:00,18.3,-10.8,30.00,NNE,23,11.0,13.0,26,0.00,,,0.00,Weather View 32 v70,2013-01-26 15:02:00,
2013-01-26 10:07:00,20.1,-9.0,30.00,NE,37,5.0,13.0,26,0.00,,,0.00,Weather View 32 v70,2013-01-26 15:07:00,
2013-01-26 10:12:00,21.7,-8.9,30.00,East,80,6.0,19.0,25,0.00,,,0.00,Weather View 32 v70,2013-01-26 15:12:00,
2013-01-26 10:17:00,21.7,-8.7,30.00,North,2,2.0,19.0,25,0.00,,,0.00,Weather View 32 v70,2013-01-26 15:17:00,
2013-01-26 10:22:00,22.1,-8.1,30.00,ENE,73,4.0,19.0,25,0.00,,,0.00,Weather View 32 v70,2013-01-26 15:22:00,
2013-01-26 10:27:00,21.2,-10.4,30.00,East,94,6.0,19.0,24,0.00,,,0.00,Weather View 32 v70,2013-01-26 15:27:00,
2013-01-26 10:32:00,22.6,-8.7,30.00,ENE,73,4.0,19.0,24,0.00,,,0.00,Weather View 32 v70,2013-01-26 15:32:00,
2013-01-26 10:37:00,22.8,-10.0,30.00,East,87,2.0,19.0,22,0.00,,,0.00,Weather View 32 v70,2013-01-26 15:37:00,
2013-01-26 10:42:00,20.5,-11.9,30.00,NNW,332,4.0,19.0,23,0.00,,,0.00,Weather View 32 v70,2013-01-26 15:42:00,
2013-01-26 10:47:00,21.7,-10.2,30.00,East,82,5.0,19.0,23,0.00,,,0.00,Weather View 32 v70,2013-01-26 15:47:00,
2013-01-26 10:52:00,21.5,-11.5,30.00,NNE,13,3.0,19.0,22,0.00,,,0.00,Weather View 32 v70,2013-01-26 15:52:00,
2013-01-26 10:57:00,22.1,-10.6,30.00,NNE,18,7.0,19.0,22,0.00,,,0.00,Weather View 32 v70,2013-01-26 15:57:00,
2013-01-26 11:02:00,20.5,-13.4,30.00,North,3,5.0,19.0,21,0.00,,,0.00,Weather View 32 v70,2013-01-26 16:02:00,
2013-01-26 11:07:00,21.4,-9.8,30.00,WNW,303,5.0,19.0,24,0.00,,,0.00,Weather View 32 v70,2013-01-26 16:07:00,
2013-01-26 11:12:00,21.0,-11.6,30.03,NNW,347,4.0,15.0,22,0.00,,,0.00,Weather View 32 v70,2013-01-26 16:12:00,
2013-01-26 11:17:00,22.4,-11.1,30.03,ENE,74,5.0,15.0,22,0.00,,,0.00,Weather View 32 v70,2013-01-26 16:17:00,
2013-01-26 11:22:00,21.2,-11.4,29.97,North,1,5.0,25.0,22,0.00,,,0.00,Weather View 32 v70,2013-01-26 16:22:00,
2013-01-26 11:27:00,23.0,-11.6,30.00,ENE,61,4.0,25.0,21,0.00,,,0.00,Weather View 32 v70,2013-01-26 16:27:00,
2013-01-26 11:32:00,22.8,-11.5,30.00,East,91,3.0,25.0,21,0.00,,,0.00,Weather View 32 v70,2013-01-26 16:32:00,
2013-01-26 11:37:00,21.4,-12.6,29.97,WNW,296,4.0,25.0,21,0.00,,,0.00,Weather View 32 v70,2013-01-26 16:37:00,
2013-01-26 11:42:00,22.6,-10.2,30.00,East,81,3.0,25.0,22,0.00,,,0.00,Weather View 32 v70,2013-01-26 16:42:00,
2013-01-26 11:47:00,23.5,-9.2,29.97,ESE,110,4.0,25.0,23,0.00,,,0.00,Weather View 32 v70,2013-01-26 16:47:00,
2013-01-26 11:52:00,24.4,-10.7,29.97,East,100,2.0,25.0,20,0.00,,,0.00,Weather View 32 v70,2013-01-26 16:52:00,
2013-01-26 11:57:00,22.8,-10.7,29.97,WSW,246,1.0,25.0,22,0.00,,,0.00,Weather View 32 v70,2013-01-26 16:57:00,
2013-01-26 12:02:00,25.3,-5.8,29.97,East,95,7.0,25.0,25,0.00,,,0.00,Weather View 32 v70,2013-01-26 17:02:00,
2013-01-26 12:07:00,24.8,-10.1,29.97,NNE,31,4.0,25.0,21,0.00,,,0.00,Weather View 32 v70,2013-01-26 17:07:00,
2013-01-26 12:12:00,22.3,-10.6,29.97,NW,315,3.0,25.0,22,0.00,,,0.00,Weather View 32 v70,2013-01-26 17:12:00,
2013-01-26 12:17:00,23.3,-9.3,29.97,NNW,327,2.0,25.0,23,0.00,,,0.00,Weather View 32 v70,2013-01-26 17:17:00,
2013-01-26 12:22:00,24.8,-9.2,29.97,ESE,111,2.0,23.0,22,0.00,,,0.00,Weather View 32 v70,2013-01-26 17:22:00,
2013-01-26 12:27:00,25.5,-11.3,29.97,NNE,26,6.0,23.0,19,0.00,,,0.00,Weather View 32 v70,2013-01-26 17:27:00,
2013-01-26 12:32:00,25.0,-10.7,29.97,NE,48,4.0,23.0,20,0.00,,,0.00,Weather View 32 v70,2013-01-26 17:32:00,
2013-01-26 12:37:00,23.3,-12.4,29.97,SSE,154,7.0,23.0,19,0.00,,,0.00,Weather View 32 v70,2013-01-26 17:37:00,
2013-01-26 12:42:00,24.8,-11.4,29.97,East,81,2.0,23.0,19,0.00,,,0.00,Weather View 32 v70,2013-01-26 17:42:00,
2013-01-26 12:47:00,24.8,-10.8,29.97,East,82,4.0,23.0,20,0.00,,,0.00,Weather View 32 v70,2013-01-26 17:47:00,
2013-01-26 12:52:00,24.4,-11.5,29.97,ENE,75,4.0,23.0,19,0.00,,,0.00,Weather View 32 v70,2013-01-26 17:52:00,
2013-01-26 12:57:00,26.2,-9.0,29.97,East,93,2.0,16.0,20,0.00,,,0.00,Weather View 32 v70,2013-01-26 17:57:00,
2013-01-26 13:02:00,24.2,-13.4,29.97,WSW,258,11.0,16.0,18,0.00,,,0.00,Weather View 32 v70,2013-01-26 18:02:00,
2013-01-26 13:07:00,26.6,-11.1,30.00,SE,144,3.0,16.0,18,0.00,,,0.00,Weather View 32 v70,2013-01-26 18:07:00,
2013-01-26 13:12:00,24.2,-14.3,30.00,WSW,243,3.0,16.0,17,0.00,,,0.00,Weather View 32 v70,2013-01-26 18:12:00,
2013-01-26 13:17:00,25.9,-12.6,29.97,East,90,1.0,16.0,17,0.00,,,0.00,Weather View 32 v70,2013-01-26 18:17:00,
2013-01-26 13:22:00,25.1,-13.2,29.97,ESE,104,1.0,16.0,17,0.00,,,0.00,Weather View 32 v70,2013-01-26 18:22:00,
2013-01-26 13:27:00,25.9,-14.1,29.97,East,88,2.0,16.0,16,0.00,,,0.00,Weather View 32 v70,2013-01-26 18:27:00,
2013-01-26 13:32:00,25.3,-17.0,29.97,North,5,1.0,16.0,14,0.00,,,0.00,Weather View 32 v70,2013-01-26 18:32:00,
2013-01-26 13:37:00,27.3,-14.0,29.97,SSE,149,4.0,16.0,15,0.00,,,0.00,Weather View 32 v70,2013-01-26 18:37:00,
2013-01-26 13:42:00,25.7,-15.2,29.97,West,276,3.0,16.0,15,0.00,,,0.00,Weather View 32 v70,2013-01-26 18:42:00,
2013-01-26 13:47:00,27.1,-13.0,29.97,South,188,1.0,15.0,16,0.00,,,0.00,Weather View 32 v70,2013-01-26 18:47:00,
2013-01-26 13:52:00,25.5,-16.3,29.97,NNE,25,5.0,22.0,15,0.00,,,0.00,Weather View 32 v70,2013-01-26 18:52:00,
2013-01-26 13:57:00,26.6,-15.5,29.97,NE,46,5.0,22.0,15,0.00,,,0.00,Weather View 32 v70,2013-01-26 18:57:00,
2013-01-26 14:02:00,25.7,-15.1,29.97,North,357,6.0,22.0,15,0.00,,,0.00,Weather View 32 v70,2013-01-26 19:02:00,
2013-01-26 14:07:00,28.2,-14.6,29.97,ENE,75,6.0,22.0,14,0.00,,,0.00,Weather View 32 v70,2013-01-26 19:07:00,
2013-01-26 14:12:00,27.7,-14.4,29.97,ENE,66,2.0,22.0,15,0.00,,,0.00,Weather View 32 v70,2013-01-26 19:12:00,
2013-01-26 14:17:00,28.0,-13.4,29.97,SSW,199,2.0,22.0,15,0.00,,,0.00,Weather View 32 v70,2013-01-26 19:17:00,
2013-01-26 14:22:00,26.9,-16.1,29.97,NNE,28,3.0,22.0,14,0.00,,,0.00,Weather View 32 v70,2013-01-26 19:22:00,
2013-01-26 14:27:00,25.9,-14.6,29.97,ENE,75,9.0,22.0,16,0.00,,,0.00,Weather View 32 v70,2013-01-26 19:27:00,
2013-01-26 14:32:00,25.9,-14.3,29.97,North,353,4.0,22.0,16,0.00,,,0.00,Weather View 32 v70,2013-01-26 19:32:00,
2013-01-26 14:37:00,26.9,-12.3,29.97,SE,128,5.0,22.0,17,0.00,,,0.00,Weather View 32 v70,2013-01-26 19:37:00,
2013-01-26 14:42:00,25.7,-14.1,29.97,SSE,161,2.0,22.0,16,0.00,,,0.00,Weather View 32 v70,2013-01-26 19:42:00,
2013-01-26 14:47:00,25.9,-13.9,29.97,NNW,333,2.0,22.0,16,0.00,,,0.00,Weather View 32 v70,2013-01-26 19:47:00,
2013-01-26 14:52:00,30.0,-10.3,29.97,ESE,116,1.0,17.0,16,0.00,,,0.00,Weather View 32 v70,2013-01-26 19:52:00,
2013-01-26 14:57:00,28.9,-12.4,29.97,East,101,2.0,17.0,15,0.00,,,0.00,Weather View 32 v70,2013-01-26 19:57:00,
2013-01-26 15:02:00,26.8,-15.1,29.97,NNW,347,2.0,17.0,15,0.00,,,0.00,Weather View 32 v70,2013-01-26 20:02:00,
2013-01-26 15:07:00,25.3,-15.2,29.94,North,10,2.0,17.0,16,0.00,,,0.00,Weather View 32 v70,2013-01-26 20:07:00,
2013-01-26 15:12:00,25.7,-15.1,29.97,NNE,16,2.0,13.0,15,0.00,,,0.00,Weather View 32 v70,2013-01-26 20:12:00,
2013-01-26 15:17:00,28.0,-11.9,30.00,SSE,161,4.0,13.0,16,0.00,,,0.00,Weather View 32 v70,2013-01-26 20:17:00,
2013-01-26 15:22:00,26.4,-14.2,29.97,SW,234,2.0,13.0,16,0.00,,,0.00,Weather View 32 v70,2013-01-26 20:22:00,
2013-01-26 15:27:00,25.9,-16.8,29.97,NE,56,2.0,13.0,14,0.00,,,0.00,Weather View 32 v70,2013-01-26 20:27:00,
2013-01-26 15:32:00,25.3,-19.4,30.00,North,352,3.0,13.0,13,0.00,,,0.00,Weather View 32 v70,2013-01-26 20:32:00,
2013-01-26 15:37:00,25.5,-19.3,30.00,WNW,303,2.0,15.0,13,0.00,,,0.00,Weather View 32 v70,2013-01-26 20:37:00,
2013-01-26 15:42:00,25.3,-19.4,30.00,NNW,329,4.0,15.0,13,0.00,,,0.00,Weather View 32 v70,2013-01-26 20:42:00,
2013-01-26 15:47:00,27.3,-18.0,30.00,SE,139,4.0,15.0,12,0.00,,,0.00,Weather View 32 v70,2013-01-26 20:47:00,
2013-01-26 15:52:00,26.6,-17.1,30.00,South,170,3.0,15.0,13,0.00,,,0.00,Weather View 32 v70,2013-01-26 20:52:00,
2013-01-26 15:57:00,25.1,-20.5,30.00,ESE,109,3.0,15.0,12,0.00,,,0.00,Weather View 32 v70,2013-01-26 20:57:00,
2013-01-26 16:02:00,26.6,-18.3,30.00,SE,129,3.0,15.0,13,0.00,,,0.00,Weather View 32 v70,2013-01-26 21:02:00,
2013-01-26 16:07:00,25.9,-18.8,30.00,ESE,108,6.0,15.0,13,0.00,,,0.00,Weather View 32 v70,2013-01-26 21:07:00,
2013-01-26 16:12:00,24.4,-20.5,30.00,South,178,3.0,15.0,12,0.00,,,0.00,Weather View 32 v70,2013-01-26 21:12:00,
2013-01-26 16:17:00,23.5,-20.9,30.00,West,274,7.0,15.0,13,0.00,,,0.00,Weather View 32 v70,2013-01-26 21:17:00,
2013-01-26 16:22:00,23.9,-19.1,30.03,SSE,149,2.0,15.0,14,0.00,,,0.00,Weather View 32 v70,2013-01-26 21:22:00,
2013-01-26 16:27:00,23.9,-17.7,30.03,East,91,5.0,15.0,15,0.00,,,0.00,Weather View 32 v70,2013-01-26 21:27:00,
2013-01-26 16:32:00,23.3,-18.3,30.03,ESE,111,3.0,15.0,14,0.00,,,0.00,Weather View 32 v70,2013-01-26 21:32:00,
2013-01-26 16:37:00,23.9,-17.2,30.06,SE,127,13.0,14.0,15,0.00,,,0.00,Weather View 32 v70,2013-01-26 21:37:00,
2013-01-26 16:42:00,22.6,-18.1,30.03,ESE,121,6.0,15.0,15,0.00,,,0.00,Weather View 32 v70,2013-01-26 21:42:00,
2013-01-26 16:47:00,21.5,-17.5,30.03,East,100,8.0,15.0,16,0.00,,,0.00,Weather View 32 v70,2013-01-26 21:47:00,
2013-01-26 16:52:00,21.2,-18.0,30.03,ENE,60,5.0,15.0,16,0.00,,,0.00,Weather View 32 v70,2013-01-26 21:52:00,
2013-01-26 16:57:00,21.0,-17.8,30.03,ESE,119,6.0,15.0,16,0.00,,,0.00,Weather View 32 v70,2013-01-26 21:57:00,
2013-01-26 17:02:00,21.2,-17.4,30.03,ENE,73,6.0,15.0,17,0.00,,,0.00,Weather View 32 v70,2013-01-26 22:02:00,
2013-01-26 17:07:00,20.6,-18.1,30.03,ENE,60,4.0,15.0,16,0.00,,,0.00,Weather View 32 v70,2013-01-26 22:07:00,
2013-01-26 17:12:00,20.6,-17.9,30.03,NE,48,4.0,15.0,17,0.00,,,0.00,Weather View 32 v70,2013-01-26 22:12:00,
2013-01-26 17:17:00,20.5,-17.8,30.09,NNE,17,10.0,15.0,17,0.00,,,0.00,Weather View 32 v70,2013-01-26 22:17:00,
2013-01-26 17:22:00,20.5,-17.7,30.06,NE,35,8.0,15.0,17,0.00,,,0.00,Weather View 32 v70,2013-01-26 22:22:00,
2013-01-26 17:27:00,20.5,-15.9,30.09,ENE,60,2.0,15.0,18,0.00,,,0.00,Weather View 32 v70,2013-01-26 22:27:00,
2013-01-26 17:32:00,20.1,-17.7,30.09,NNE,22,2.0,19.0,17,0.00,,,0.00,Weather View 32 v70,2013-01-26 22:32:00,
2013-01-26 17:37:00,20.1,-17.7,30.06,NNW,345,8.0,19.0,17,0.00,,,0.00,Weather View 32 v70,2013-01-26 22:37:00,
2013-01-26 17:42:00,19.9,-17.2,30.06,NE,41,4.0,19.0,18,0.00,,,0.00,Weather View 32 v70,2013-01-26 22:42:00,
2013-01-26 17:47:00,19.6,-17.5,30.09,North,359,3.0,19.0,18,0.00,,,0.00,Weather View 32 v70,2013-01-26 22:47:00,
2013-01-26 17:52:00,19.6,-18.2,30.06,NNE,12,5.0,19.0,17,0.00,,,0.00,Weather View 32 v70,2013-01-26 22:52:00,
2013-01-26 17:57:00,19.6,-18.1,30.06,NNW,332,10.0,19.0,17,0.00,,,0.00,Weather View 32 v70,2013-01-26 22:57:00,
2013-01-26 18:02:00,19.6,-17.6,30.06,NNE,25,2.0,19.0,18,0.00,,,0.00,Weather View 32 v70,2013-01-26 23:02:00,
2013-01-26 18:07:00,19.4,-18.6,30.06,NW,305,9.0,19.0,17,0.00,,,0.00,Weather View 32 v70,2013-01-26 23:07:00,
2013-01-26 18:12:00,19.4,-17.9,30.09,NNE,18,5.0,19.0,17,0.00,,,0.00,Weather View 32 v70,2013-01-26 23:12:00,
2013-01-26 18:17:00,19.4,-17.7,30.09,NE,45,4.0,19.0,18,0.00,,,0.00,Weather View 32 v70,2013-01-26 23:17:00,
2013-01-26 18:22:00,19.2,-18.2,30.09,North,353,5.0,19.0,17,0.00,,,0.00,Weather View 32 v70,2013-01-26 23:22:00,
2013-01-26 18:27:00,19.0,-18.2,30.09,SE,125,2.0,19.0,17,0.00,,,0.00,Weather View 32 v70,2013-01-26 23:27:00,
2013-01-26 18:32:00,19.0,-18.9,30.09,NW,322,5.0,15.0,17,0.00,,,0.00,Weather View 32 v70,2013-01-26 23:32:00,
2013-01-26 18:37:00,19.0,-17.4,30.09,North,353,7.0,15.0,18,0.00,,,0.00,Weather View 32 v70,2013-01-26 23:37:00,
2013-01-26 18:42:00,19.0,-17.2,30.09,North,9,4.0,15.0,18,0.00,,,0.00,Weather View 32 v70,2013-01-26 23:42:00,
2013-01-26 18:47:00,19.0,-17.6,30.09,NNE,24,3.0,15.0,18,0.00,,,0.00,Weather View 32 v70,2013-01-26 23:47:00,
2013-01-26 18:52:00,18.7,-18.0,30.09,North,8,7.0,15.0,18,0.00,,,0.00,Weather View 32 v70,2013-01-26 23:52:00,
2013-01-26 18:57:00,19.0,-17.2,30.09,North,356,6.0,12.0,18,0.00,,,0.00,Weather View 32 v70,2013-01-26 23:57:00,
2013-01-26 19:02:00,19.0,-16.8,30.12,NNW,346,6.0,12.0,19,0.00,,,0.00,Weather View 32 v70,2013-01-27 00:02:00,
2013-01-26 19:07:00,19.0,-16.5,30.12,North,6,6.0,12.0,19,0.00,,,0.00,Weather View 32 v70,2013-01-27 00:07:00,
2013-01-26 19:12:00,19.4,-15.9,30.09,NE,46,4.0,12.0,19,0.00,,,0.00,Weather View 32 v70,2013-01-27 00:12:00,
2013-01-26 19:17:00,19.2,-16.4,30.12,NNE,13,8.0,12.0,19,0.00,,,0.00,Weather View 32 v70,2013-01-27 00:17:00,
2013-01-26 19:22:00,19.0,-16.2,30.12,NNE,23,1.0,12.0,19,0.00,,,0.00,Weather View 32 v70,2013-01-27 00:22:00,
2013-01-26 19:27:00,18.7,-16.0,30.12,North,9,4.0,12.0,20,0.00,,,0.00,Weather View 32 v70,2013-01-27 00:27:00,
2013-01-26 19:32:00,18.7,-16.1,30.15,North,355,2.0,12.0,20,0.00,,,0.00,Weather View 32 v70,2013-01-27 00:32:00,
2013-01-26 19:37:00,18.7,-15.6,30.12,North,5,1.0,12.0,20,0.00,,,0.00,Weather View 32 v70,2013-01-27 00:37:00,
2013-01-26 19:42:00,18.5,-15.8,30.12,ENE,72,4.0,12.0,20,0.00,,,0.00,Weather View 32 v70,2013-01-27 00:42:00,
2013-01-26 19:47:00,18.3,-16.1,30.12,NNE,31,2.0,12.0,20,0.00,,,0.00,Weather View 32 v70,2013-01-27 00:47:00,
2013-01-26 19:52:00,18.3,-15.8,30.12,NNE,22,3.0,12.0,20,0.00,,,0.00,Weather View 32 v70,2013-01-27 00:52:00,
2013-01-26 19:57:00,18.1,-15.3,30.12,NNE,17,3.0,12.0,21,0.00,,,0.00,Weather View 32 v70,2013-01-27 00:57:00,
2013-01-26 20:02:00,17.8,-15.4,30.15,NE,38,2.0,10.0,21,0.00,,,0.00,Weather View 32 v70,2013-01-27 01:02:00,
2013-01-26 20:07:00,18.1,-14.5,30.12,NE,48,2.0,10.0,22,0.00,,,0.00,Weather View 32 v70,2013-01-27 01:07:00,
2013-01-26 20:12:00,17.8,-14.6,30.12,NE,40,2.0,9.0,22,0.00,,,0.00,Weather View 32 v70,2013-01-27 01:12:00,
2013-01-26 20:17:00,17.8,-14.7,30.12,NE,55,2.0,9.0,22,0.00,,,0.00,Weather View 32 v70,2013-01-27 01:17:00,
2013-01-26 20:22:00,17.6,-15.0,30.15,NE,45,2.0,7.0,22,0.00,,,0.00,Weather View 32 v70,2013-01-27 01:22:00,
2013-01-26 20:27:00,17.8,-14.7,30.12,ESE,105,2.0,7.0,22,0.00,,,0.00,Weather View 32 v70,2013-01-27 01:27:00,
2013-01-26 20:32:00,17.4,-15.0,30.12,NNW,330,5.0,7.0,22,0.00,,,0.00,Weather View 32 v70,2013-01-27 01:32:00,
2013-01-26 20:37:00,17.4,-15.0,30.12,NNE,29,2.0,6.0,22,0.00,,,0.00,Weather View 32 v70,2013-01-27 01:37:00,
2013-01-26 20:42:00,17.6,-15.0,30.15,NE,46,5.0,6.0,22,0.00,,,0.00,Weather View 32 v70,2013-01-27 01:42:00,
2013-01-26 20:47:00,17.6,-14.6,30.12,East,84,1.0,6.0,22,0.00,,,0.00,Weather View 32 v70,2013-01-27 01:47:00,
2013-01-26 20:52:00,17.4,-15.5,30.12,North,349,4.0,6.0,21,0.00,,,0.00,Weather View 32 v70,2013-01-27 01:52:00,
2013-01-26 20:57:00,17.2,-14.8,30.15,SSE,156,0.0,8.0,22,0.00,,,0.00,Weather View 32 v70,2013-01-27 01:57:00,
2013-01-26 21:02:00,17.4,-14.9,30.15,South,180,1.0,8.0,22,0.00,,,0.00,Weather View 32 v70,2013-01-27 02:02:00,
2013-01-26 21:07:00,17.2,-14.5,30.15,East,91,1.0,8.0,23,0.00,,,0.00,Weather View 32 v70,2013-01-27 02:07:00,
2013-01-26 21:12:00,16.9,-14.4,30.15,NNE,23,4.0,8.0,23,0.00,,,0.00,Weather View 32 v70,2013-01-27 02:12:00,
2013-01-26 21:17:00,16.7,-14.8,30.15,NNE,31,2.0,8.0,23,0.00,,,0.00,Weather View 32 v70,2013-01-27 02:17:00,
2013-01-26 21:22:00,16.7,-14.9,30.15,NE,44,2.0,8.0,23,0.00,,,0.00,Weather View 32 v70,2013-01-27 02:22:00,
2013-01-26 21:27:00,16.7,-14.6,30.15,WNW,294,4.0,8.0,23,0.00,,,0.00,Weather View 32 v70,2013-01-27 02:27:00,
2013-01-26 21:32:00,16.7,-14.3,30.15,NNE,19,5.0,8.0,23,0.00,,,0.00,Weather View 32 v70,2013-01-27 02:32:00,
2013-01-26 21:37:00,16.5,-14.8,30.15,NNE,17,3.0,8.0,23,0.00,,,0.00,Weather View 32 v70,2013-01-27 02:37:00,
2013-01-26 21:42:00,16.5,-14.6,30.15,NE,37,1.0,8.0,23,0.00,,,0.00,Weather View 32 v70,2013-01-27 02:42:00,
2013-01-26 21:47:00,16.1,-15.1,30.15,NNW,343,2.0,8.0,23,0.00,,,0.00,Weather View 32 v70,2013-01-27 02:47:00,
2013-01-26 21:52:00,16.5,-14.8,30.15,NW,315,1.0,8.0,23,0.00,,,0.00,Weather View 32 v70,2013-01-27 02:52:00,
2013-01-26 21:57:00,16.5,-14.3,30.15,NE,56,2.0,8.0,24,0.00,,,0.00,Weather View 32 v70,2013-01-27 02:57:00,
2013-01-26 22:02:00,16.5,-14.8,30.15,NNW,343,1.0,8.0,23,0.00,,,0.00,Weather View 32 v70,2013-01-27 03:02:00,
2013-01-26 22:07:00,16.5,-15.2,30.18,North,352,3.0,8.0,23,0.00,,,0.00,Weather View 32 v70,2013-01-27 03:07:00,
2013-01-26 22:12:00,16.5,-14.6,30.18,ESE,108,2.0,8.0,23,0.00,,,0.00,Weather View 32 v70,2013-01-27 03:12:00,
2013-01-26 22:17:00,16.1,-15.7,30.18,NE,51,2.0,8.0,22,0.00,,,0.00,Weather View 32 v70,2013-01-27 03:17:00,
2013-01-26 22:22:00,16.1,-15.1,30.21,NE,36,1.0,8.0,23,0.00,,,0.00,Weather View 32 v70,2013-01-27 03:22:00,
2013-01-26 22:27:00,16.1,-15.6,30.18,East,99,1.0,8.0,23,0.00,,,0.00,Weather View 32 v70,2013-01-27 03:27:00,
2013-01-26 22:32:00,16.0,-15.4,30.18,East,90,0.0,8.0,23,0.00,,,0.00,Weather View 32 v70,2013-01-27 03:32:00,
2013-01-26 22:37:00,15.8,-15.4,30.18,North,1,2.0,8.0,23,0.00,,,0.00,Weather View 32 v70,2013-01-27 03:37:00,
2013-01-26 22:42:00,16.0,-14.8,30.21,WSW,238,2.0,8.0,24,0.00,,,0.00,Weather View 32 v70,2013-01-27 03:42:00,
2013-01-26 22:47:00,15.8,-15.4,30.18,NNE,33,2.0,8.0,23,0.00,,,0.00,Weather View 32 v70,2013-01-27 03:47:00,
2013-01-26 22:52:00,15.8,-15.6,30.18,NNW,343,9.0,9.0,23,0.00,,,0.00,Weather View 32 v70,2013-01-27 03:52:00,
2013-01-26 22:57:00,15.8,-15.7,30.18,North,352,10.0,15.0,23,0.00,,,0.00,Weather View 32 v70,2013-01-27 03:57:00,
2013-01-26 23:02:00,15.8,-15.4,30.18,NNE,14,11.0,15.0,23,0.00,,,0.00,Weather View 32 v70,2013-01-27 04:02:00,
2013-01-26 23:07:00,15.8,-15.2,30.18,North,11,9.0,15.0,23,0.00,,,0.00,Weather View 32 v70,2013-01-27 04:07:00,
2013-01-26 23:12:00,15.6,-15.5,30.18,North,11,12.0,15.0,23,0.00,,,0.00,Weather View 32 v70,2013-01-27 04:12:00,
2013-01-26 23:17:00,15.2,-15.6,30.18,North,7,7.0,15.0,23,0.00,,,0.00,Weather View 32 v70,2013-01-27 04:17:00,
2013-01-26 23:22:00,15.2,-15.8,30.18,North,359,9.0,16.0,23,0.00,,,0.00,Weather View 32 v70,2013-01-27 04:22:00,
2013-01-26 23:27:00,15.2,-15.2,30.21,NNE,21,10.0,16.0,24,0.00,,,0.00,Weather View 32 v70,2013-01-27 04:27:00,
2013-01-26 23:32:00,15.2,-15.6,30.21,North,360,10.0,16.0,23,0.00,,,0.00,Weather View 32 v70,2013-01-27 04:32:00,
2013-01-26 23:37:00,15.2,-15.9,30.18,North,359,8.0,16.0,23,0.00,,,0.00,Weather View 32 v70,2013-01-27 04:37:00,
2013-01-26 23:42:00,15.2,-15.9,30.21,North,5,11.0,16.0,23,0.00,,,0.00,Weather View 32 v70,2013-01-27 04:42:00,
2013-01-26 23:47:00,15.1,-14.9,30.21,NNE,17,8.0,16.0,24,0.00,,,0.00,Weather View 32 v70,2013-01-27 04:47:00,
2013-01-26 23:52:00,15.1,-16.8,30.21,North,8,8.0,16.0,22,0.00,,,0.00,Weather View 32 v70,2013-01-27 04:52:00,
2013-01-26 23:57:00,14.9,-16.8,30.21,North,350,7.0,16.0,22,0.00,,,0.00,Weather View 32 v70,2013-01-27 04:57:00,